GFSSGP_250_spd_276.txt.gz
Wind_Speed
19 21 20 18 14 15 16 22 25 28 27 29 23 32 33 34 28 30 30 25 29 31 35 34 32 31 30 31 32 33 32 29 32 37 36 29 29 31 34 38 38 36 37 39 43 44 44 44 45
22 23 22 20 15 10 9 13 37 34 31 30 26 22 28 34 40 38 36 28 31 32 34 34 33 34 35 35 34 33 35 38 40 42 37 33 32 30 32 36 35 33 34 38 38 40 44 46 49
24 25 24 22 17 11 20 15 39 29 31 34 29 28 33 22 34 37 42 43 43 42 40 40 39 39 38 36 36 37 41 42 42 40 38 38 40 38 40 41 44 45 49 47 45 46 47 47 48
24 24 24 23 20 16 13 24 36 27 32 35 35 31 32 40 36 38 39 41 40 37 36 37 37 36 37 37 39 42 39 42 40 39 41 47 44 45 47 50 50 50 50 50 52 51 49 47 51
23 24 24 25 24 25 35 27 30 23 36 37 37 35 34 31 35 41 43 41 40 38 35 35 35 39 41 43 43 41 41 42 42 44 47 46 49 48 51 51 51 48 47 49 47 46 46 48 50
23 25 26 24 20 24 29 35 32 36 39 34 33 36 36 36 34 42 42 41 38 37 36 38 44 43 43 41 41 39 41 41 43 47 49 51 52 53 52 49 47 45 42 42 44 46 46 47 49
25 26 25 24 23 27 26 29 21 28 33 33 28 33 40 38 37 37 38 43 44 44 44 47 45 44 43 41 42 42 42 46 48 50 50 48 48 47 45 42 41 42 42 44 46 48 49 51 53
25 26 27 26 25 23 17 30 18 12 26 31 28 31 41 37 39 38 38 38 38 41 41 41 40 38 38 39 40 41 42 43 44 46 46 43 43 41 41 43 45 46 47 48 49 50 52 54 56
24 24 26 26 24 23 29 30 18 23 29 32 36 31 35 35 37 38 38 38 38 38 38 37 36 36 36 37 38 40 41 43 42 40 41 42 43 45 45 46 48 49 49 50 51 51 52 55 58
22 23 24 21 22 20 31 23 26 32 31 32 34 32 34 36 33 34 34 35 36 35 34 35 35 35 36 37 36 36 37 39 41 42 44 46 48 48 50 51 52 53 54 54 54 54 56 58 60
22 21 22 23 23 22 24 17 23 30 19 13 32 27 31 33 30 30 30 31 32 32 32 32 33 32 29 31 34 37 40 43 45 47 50 51 51 51 52 53 54 55 57 59 61 61 61 63 63
19 19 19 19 20 21 25 24 32 32 9 10 9 43 34 30 29 29 29 27 26 26 25 24 24 27 30 33 36 39 42 44 46 48 50 51 53 53 55 56 57 58 58 57 59 62 65 68 68
19 17 17 16 16 17 18 16 23 23 21 20 37 46 50 40 30 26 28 27 25 24 24 25 29 31 31 34 37 40 44 47 49 51 51 53 55 54 56 56 57 58 59 64 66 67 68 70 68
18 16 16 15 13 13 12 15 18 18 11 37 31 38 41 31 26 24 26 25 27 27 28 31 32 34 35 38 41 44 47 50 51 53 54 56 56 58 61 60 59 64 69 70 72 73 71 68 67
19 17 18 16 15 14 12 12 16 23 25 28 24 24 25 20 20 22 24 25 28 30 32 34 39 42 43 44 47 50 53 53 57 59 59 58 59 64 64 65 66 74 76 75 75 75 72 70 70
21 19 19 19 18 17 16 16 15 15 17 18 21 19 18 19 18 21 24 29 33 34 37 40 42 47 47 49 51 54 58 56 58 55 57 58 61 65 70 71 74 77 80 79 77 75 74 76 75
22 21 21 21 20 19 18 20 19 19 19 20 17 17 18 16 18 21 27 32 39 36 38 40 44 51 57 58 59 61 61 60 57 55 56 64 69 71 75 79 80 82 83 77 75 77 77 79 79
24 24 23 23 24 22 20 20 20 21 22 20 18 14 12 15 13 9 43 59 43 28 44 49 52 57 59 64 68 61 64 61 62 63 66 66 71 75 78 79 80 80 79 79 80 80 81 84 83
30 26 25 25 24 26 24 21 21 21 21 16 14 12 15 11 18 18 38 61 31 33 52 54 56 64 64 65 65 68 68 65 64 71 73 74 76 79 79 79 80 81 83 83 84 85 86 85 77
32 29 28 27 26 29 26 28 24 21 19 16 17 16 16 11 4 8 43 12 43 53 53 56 59 66 71 69 70 70 66 67 71 76 76 77 78 79 80 81 83 86 87 87 86 82 75 70 65
33 32 31 30 29 30 30 27 28 27 23 21 21 22 20 13 16 8 39 46 54 57 60 63 67 71 76 77 75 72 72 76 78 78 80 79 80 81 83 86 87 87 83 78 73 71 65 61 58
36 35 33 34 33 31 33 30 31 28 26 27 24 28 28 28 23 26 36 46 54 60 66 70 72 76 79 79 79 82 84 84 85 84 83 85 85 86 85 82 77 75 72 69 66 63 59 56 50
38 36 35 36 32 33 34 34 35 31 30 31 31 34 34 38 38 37 43 49 58 65 69 71 74 77 79 80 83 85 86 86 87 88 88 86 82 76 73 76 73 72 67 62 57 52 51 54 53
39 37 36 34 34 33 35 37 38 34 32 29 35 41 41 44 47 49 52 56 62 67 70 73 77 80 80 83 86 86 86 87 89 85 78 76 76 74 68 68 68 63 55 48 42 45 52 55 60
39 38 37 35 34 34 39 40 42 39 37 37 40 45 48 49 51 54 57 61 64 68 72 76 78 79 82 86 85 85 87 82 75 71 71 72 72 70 66 62 56 48 42 37 43 44 49 56 41
40 39 39 38 39 41 39 42 45 40 43 40 44 47 48 51 54 57 60 64 68 71 74 76 78 84 85 84 86 84 76 70 66 65 67 68 68 64 56 48 40 35 31 35 39 38 43 27 7
43 42 45 41 41 43 46 48 46 44 45 49 47 49 51 52 55 59 64 67 71 73 74 78 83 83 84 83 76 72 67 62 60 63 63 63 59 53 43 35 30 31 38 38 40 38 29 10 10
45 49 48 45 45 47 50 50 49 47 45 49 51 53 54 57 60 64 68 70 72 75 78 81 82 83 79 74 70 64 59 60 60 61 61 58 53 40 35 27 32 39 42 43 39 37 22 16 19
50 49 48 49 47 49 50 58 51 50 48 50 52 54 60 61 65 67 69 71 74 79 80 80 82 77 73 69 59 57 58 58 59 60 58 57 52 40 38 32 33 37 42 38 39 34 26 24 24
54 52 53 51 52 51 52 59 56 54 54 52 57 57 59 66 67 69 71 75 78 78 79 78 73 69 64 56 56 56 58 59 61 60 59 56 51 39 37 33 38 40 46 39 40 32 29 29 27

GFSSGP_250_spd_279.txt.gz
Wind_Speed
19 17 15 14 13 12 14 19 17 16 26 27 24 26 21 28 30 32 36 40 42 41 39 37 34 30 33 33 34 35 34 34 34 33 35 39 42 38 36 35 37 34 34 34 34 36 34 40 44
23 20 16 15 16 15 16 19 10 7 21 25 24 28 24 22 28 30 36 38 37 39 36 33 34 38 40 38 38 38 38 36 36 38 40 40 42 41 41 40 42 41 40 41 42 45 48 49 46
23 22 20 16 18 15 20 23 28 27 20 33 32 30 29 26 25 30 34 34 39 34 36 42 44 43 42 41 40 37 36 39 40 42 41 42 41 40 40 45 46 43 47 47 50 49 53 51 52
23 23 22 19 19 18 22 24 25 23 31 38 34 32 31 29 26 26 33 36 36 38 40 42 42 41 38 35 34 38 43 43 43 44 45 44 43 43 46 46 47 49 49 51 52 50 50 51 53
25 24 22 18 17 20 24 25 21 24 26 31 39 37 40 36 31 28 33 37 40 41 41 40 39 37 38 37 42 46 45 46 45 45 44 46 45 45 46 48 50 51 53 55 53 52 53 53 51
25 23 20 19 15 20 22 10 28 25 26 29 35 37 36 33 32 32 31 38 38 42 43 42 43 42 40 45 50 49 48 47 47 47 47 46 47 49 50 50 50 50 50 50 48 47 48 49 48
23 23 25 21 22 24 29 28 34 30 43 28 28 25 26 28 30 30 30 33 35 46 49 48 48 50 50 51 50 47 46 45 44 44 44 45 47 48 48 47 46 45 45 47 47 48 50 51 51
25 25 25 20 23 24 27 32 26 27 38 33 26 35 31 24 27 27 27 32 34 36 38 40 42 42 44 45 44 43 44 43 43 45 45 45 44 43 44 45 46 47 48 50 51 52 53 54 55
24 26 23 20 24 23 26 24 24 26 23 24 27 30 29 31 28 28 26 27 32 31 35 36 38 39 39 38 38 40 41 41 40 41 43 45 47 48 49 50 51 51 52 52 54 55 55 54 54
24 24 22 21 22 20 26 22 22 17 14 25 32 16 20 20 21 28 25 24 28 29 29 30 31 32 33 34 34 35 37 39 41 44 46 48 49 50 51 52 54 54 55 55 56 57 58 58 57
23 23 23 23 22 23 29 23 26 24 30 22 25 18 22 19 17 18 21 24 25 28 31 28 24 29 30 31 34 36 38 40 43 45 48 51 54 55 58 59 59 59 60 60 59 60 59 57 57
21 21 22 22 21 28 30 29 28 30 29 28 22 29 15 16 22 33 29 31 24 22 22 22 26 31 33 35 36 38 42 44 48 50 54 58 60 61 62 62 62 62 62 61 61 60 58 63 67
20 20 20 21 20 23 28 25 32 37 36 30 21 21 22 30 36 37 35 26 16 15 18 22 25 30 31 33 36 41 44 47 51 53 58 61 64 62 62 61 61 62 62 62 64 67 68 70 70
20 19 19 20 19 20 22 19 20 35 42 26 20 29 32 33 33 34 25 17 17 16 17 21 26 29 35 36 37 42 47 49 56 60 61 62 64 64 63 62 64 70 72 70 68 71 73 73 73
20 19 19 19 19 18 19 16 12 18 41 36 35 26 30 38 28 28 19 20 20 18 19 22 31 29 37 42 44 47 49 50 56 60 65 66 66 65 63 65 71 75 74 75 76 77 78 78 76
22 19 19 19 19 18 18 15 10 14 40 34 32 25 28 25 22 20 24 22 24 26 29 25 22 43 52 48 47 50 51 55 58 64 65 69 66 71 78 79 80 80 80 80 80 81 80 80 76
24 22 21 21 19 20 19 18 17 17 27 32 32 30 25 20 18 22 27 28 36 37 42 34 44 47 50 53 52 61 62 61 67 69 74 75 78 80 86 90 86 86 84 81 81 82 82 82 82
27 25 25 23 22 19 20 20 21 22 24 27 29 23 20 21 18 20 25 25 41 34 39 47 35 52 51 55 62 66 66 65 68 71 75 79 83 88 89 88 86 86 85 85 85 85 86 84 80
30 30 28 26 23 22 21 20 20 21 23 26 21 18 20 19 20 22 26 20 22 20 29 32 49 50 41 56 62 62 66 70 75 80 81 85 90 90 89 89 91 91 87 83 80 77 76 73 68
34 32 30 28 25 25 23 21 20 20 23 24 18 20 22 22 22 27 26 28 18 21 26 40 48 50 59 65 65 71 73 74 84 87 89 92 93 91 92 90 86 81 79 76 75 74 73 71 66
34 35 33 31 26 25 28 22 22 21 20 19 18 24 25 24 30 34 33 31 32 37 45 53 56 62 66 71 77 76 81 81 87 88 93 94 93 89 85 84 82 80 78 74 72 70 67 63 62
34 35 34 33 30 29 27 25 24 24 22 18 20 25 22 27 32 35 39 41 39 45 53 58 57 68 69 74 80 87 92 91 90 94 93 91 86 82 80 81 79 75 72 68 63 59 55 54 52
38 36 35 36 33 29 29 27 28 24 25 21 31 25 23 27 30 36 40 45 50 51 57 59 66 73 75 81 87 89 87 91 93 92 88 83 80 77 75 77 79 73 66 60 55 49 47 42 42
39 37 36 36 34 30 35 26 30 25 21 24 31 32 26 27 33 36 42 48 51 55 61 66 70 74 80 83 85 84 87 89 90 87 81 77 74 72 71 69 68 61 55 48 43 37 36 37 42
39 39 37 36 35 37 35 32 32 26 24 29 35 35 37 38 37 40 43 46 50 54 59 64 69 76 79 82 83 85 87 87 82 77 72 70 67 68 69 66 60 51 46 39 34 37 40 40 40
41 39 38 39 40 39 37 36 32 29 29 29 32 36 39 41 44 46 47 49 51 55 62 67 73 76 79 82 83 84 83 78 72 70 68 65 67 67 69 64 57 49 40 36 39 45 43 42 37
45 40 47 39 40 39 43 43 35 32 32 33 36 39 41 44 46 47 49 51 55 60 66 72 73 77 80 80 81 79 74 69 68 65 65 65 68 68 70 63 56 48 45 41 42 39 39 40 37
47 47 47 43 44 44 49 45 42 36 33 37 39 38 43 47 46 48 53 55 59 65 68 71 76 77 77 78 74 71 67 68 64 65 66 68 72 73 71 59 54 47 42 41 40 40 44 42 33
52 48 51 50 45 47 50 48 44 41 38 36 40 42 44 48 53 55 58 58 62 62 66 76 77 75 75 71 67 65 64 63 63 65 68 71 75 73 67 58 55 43 43 46 45 46 46 42 34
54 51 52 51 51 51 50 50 46 49 41 39 40 44 49 53 60 62 54 51 54 65 80 80 75 74 69 65 64 63 63 62 64 67 71 74 76 71 61 57 49 41 43 47 49 48 43 39 34

GFSSGP_250_spd_285.txt.gz
Wind_Speed
22 19 17 16 16 17 15 17 25 23 21 16 18 22 20 21 24 23 26 28 28 35 43 45 40 37 33 31 30 30 31 37 40 42 42 39 36 36 37 38 40 42 42 41 43 43 45 46 47
22 21 19 17 16 19 16 20 25 25 26 22 21 22 25 23 20 22 28 28 31 30 32 38 37 34 35 35 32 31 39 40 38 37 37 37 39 40 41 41 42 42 41 42 43 44 45 48 50
23 24 22 19 19 19 19 21 25 26 30 31 31 25 24 30 24 24 26 26 33 31 29 28 28 26 26 29 34 39 39 33 35 38 41 44 46 46 42 42 42 42 43 43 44 45 46 48 50
24 26 24 19 22 21 21 23 28 28 29 28 29 31 29 29 32 31 34 37 32 33 32 28 28 30 31 33 36 35 36 39 43 46 49 50 48 44 43 42 41 41 42 43 43 45 46 49 50
27 26 22 20 22 22 23 27 32 31 31 34 31 33 30 27 25 24 24 27 28 28 30 31 33 34 37 37 42 41 42 45 47 49 48 43 41 40 39 38 37 37 38 40 42 45 47 50 51
29 26 23 22 24 21 26 29 34 30 27 29 31 29 33 31 25 24 31 29 24 23 26 30 33 36 40 45 43 45 49 50 50 42 41 40 37 35 33 34 35 36 37 39 41 44 47 50 52
31 27 23 17 22 25 28 30 33 29 30 29 31 31 31 29 30 32 32 29 24 24 22 24 27 30 33 35 37 37 39 39 39 37 34 31 31 34 34 35 38 39 40 41 44 49 53 54 56
31 29 23 15 21 23 26 27 32 30 30 33 28 27 25 24 26 27 32 25 22 23 20 20 22 25 25 27 30 32 33 33 31 30 31 33 33 35 38 39 41 43 44 44 46 54 58 58 57
31 30 23 18 22 24 23 25 28 31 33 26 35 28 31 27 27 29 25 18 18 18 15 20 25 24 24 28 28 29 27 27 30 32 33 35 37 39 41 45 46 47 48 52 53 59 66 68 64
32 29 21 22 22 23 26 23 24 32 32 29 38 36 40 38 40 37 24 22 14 20 25 29 31 31 25 23 25 25 24 26 30 34 35 37 41 41 46 51 53 52 56 57 60 67 72 72 66
31 30 23 25 24 26 24 25 28 31 40 38 41 45 49 46 46 34 26 16 23 25 32 30 30 30 27 24 21 25 28 31 34 36 39 38 37 48 55 55 55 57 59 67 73 74 76 76 71
29 27 24 26 26 24 25 28 34 37 36 37 45 47 51 47 46 41 32 28 22 29 33 28 27 25 21 23 22 26 30 36 39 40 46 49 49 53 59 59 63 64 70 78 81 78 77 78 80
29 29 28 27 26 25 25 25 33 37 36 39 44 46 42 45 41 40 33 37 37 33 27 23 25 27 26 32 31 28 30 36 40 48 49 47 57 61 65 68 65 72 75 84 80 80 82 85 87
29 30 27 26 24 25 26 26 28 30 32 38 39 42 38 40 43 41 35 41 44 37 32 22 15 20 31 35 29 33 37 41 41 43 42 52 61 64 60 63 67 76 81 85 83 85 88 87 85
31 28 27 25 23 23 24 25 26 28 27 28 35 44 40 37 40 38 44 39 34 32 27 21 29 31 31 33 33 42 46 44 47 50 57 61 66 69 62 72 82 85 85 83 87 88 85 78 74
30 27 23 23 22 21 20 21 24 25 26 26 28 40 46 44 51 53 47 37 37 37 27 30 29 35 39 43 43 45 46 47 51 59 56 65 71 67 74 85 85 85 86 88 88 84 81 79 78
29 25 27 27 25 21 20 20 21 19 22 24 27 34 50 58 59 58 59 46 45 42 32 35 36 37 41 46 45 42 44 53 59 58 65 67 69 76 85 85 85 87 88 86 80 80 78 76 77
27 27 28 29 26 25 23 21 20 20 23 23 25 29 34 42 51 52 55 54 45 42 39 36 38 36 39 37 39 42 48 51 52 57 67 69 80 82 83 86 88 86 82 79 78 76 77 78 77
29 31 32 32 30 25 23 22 20 20 24 26 25 31 41 40 39 37 38 42 43 38 40 40 37 38 38 42 44 50 55 56 58 61 67 77 82 84 88 87 83 81 78 78 78 77 77 81 78
31 35 36 34 30 28 27 24 22 21 23 27 32 35 42 41 42 41 41 42 42 43 42 43 43 45 51 53 52 48 47 46 56 64 68 74 79 84 85 82 79 79 80 80 80 78 79 81 80
30 34 34 33 31 30 29 28 26 24 26 26 31 36 41 38 38 41 41 42 43 43 45 46 47 52 52 53 52 52 53 56 62 68 74 83 84 84 82 79 78 79 81 82 82 80 80 83 82
34 36 34 32 33 32 33 33 29 25 26 29 30 38 40 37 36 38 38 40 42 44 45 46 48 49 50 52 54 57 60 63 67 69 84 89 87 84 81 79 79 79 80 81 81 84 85 81 74
37 32 32 29 32 33 35 34 29 26 28 29 30 33 38 38 35 35 38 40 41 43 44 46 46 49 54 57 59 65 69 71 74 79 85 92 87 81 77 77 77 79 79 79 83 86 82 73 63
39 33 34 30 33 34 35 32 30 28 29 30 33 35 35 36 34 35 37 38 39 41 42 45 49 53 57 59 63 72 75 75 73 78 85 90 81 76 76 76 76 76 76 78 84 82 74 65 57
42 39 37 33 34 36 31 26 28 30 33 29 31 32 33 35 35 34 35 37 40 42 44 46 49 53 57 59 64 67 64 70 74 79 89 80 75 73 73 74 74 74 75 82 81 76 67 59 51
42 38 38 39 36 36 32 26 29 32 33 32 32 32 33 36 36 36 38 42 44 45 45 49 51 55 58 62 63 62 67 71 78 86 80 72 71 72 74 75 75 77 78 83 77 71 63 56 44
46 43 46 39 40 39 37 32 32 35 33 34 34 34 36 36 37 39 43 46 47 48 49 51 53 58 59 64 63 65 66 75 82 81 73 71 71 73 76 77 77 78 82 81 74 67 60 51 41
46 48 48 44 42 39 40 35 35 37 37 35 34 37 39 40 41 42 45 47 49 50 50 54 57 60 65 63 65 66 70 76 84 76 71 70 70 75 80 78 80 78 84 77 72 66 56 47 38
52 48 49 51 45 43 42 40 38 38 40 38 38 40 43 44 45 47 50 52 52 50 53 57 60 64 65 64 65 65 75 77 75 72 70 69 70 76 81 82 80 82 83 74 69 62 52 42 35
60 54 49 45 48 51 46 44 43 42 42 41 43 46 48 50 50 51 56 55 53 54 57 58 62 64 65 66 63 77 73 71 72 69 69 68 72 77 82 86 82 86 79 73 66 58 48 41 34

GFSSGP_250_spd_291.txt.gz
Wind_Speed
23 23 21 22 21 18 21 23 22 20 18 17 11 15 18 19 22 27 32 34 35 35 32 35 36 36 38 38 38 37 41 41 40 37 37 41 43 42 42 35 38 43 38 34 35 33 32 32 32
24 24 24 24 22 18 17 23 24 24 21 21 20 23 22 23 27 27 30 31 31 31 32 33 35 37 37 39 40 38 35 35 34 34 36 37 41 43 38 41 44 39 36 34 33 31 29 28 26
26 26 27 24 23 20 18 22 24 25 25 23 24 25 27 27 28 29 31 32 32 30 32 36 39 37 35 37 39 34 30 29 31 33 37 38 39 42 43 43 38 34 30 27 27 27 27 27 27
29 26 25 22 21 21 21 22 24 28 27 27 26 27 29 31 31 31 33 31 29 29 32 32 31 33 31 33 34 32 31 33 35 40 44 44 43 37 36 35 32 27 26 26 26 28 30 31 32
22 22 21 21 22 22 22 25 27 28 29 30 28 29 31 31 33 33 34 34 32 32 34 32 32 27 26 28 29 31 33 35 39 40 38 37 38 35 32 28 27 28 26 27 27 29 32 35 38
22 22 20 20 19 24 24 25 27 29 30 31 31 31 31 32 33 32 34 35 37 36 33 28 26 22 19 18 23 28 33 36 38 36 33 31 27 25 25 27 28 30 30 31 32 33 37 41 41
26 24 22 21 19 25 28 29 30 31 32 31 31 31 31 34 34 36 36 35 32 23 21 29 24 17 18 23 27 29 31 33 33 31 28 25 23 25 26 28 27 30 34 34 37 41 44 47 44
29 30 27 23 21 27 31 33 32 32 32 33 31 30 30 33 34 34 33 33 29 21 24 24 26 24 24 28 29 31 34 30 29 26 24 25 24 26 26 30 34 37 38 41 43 44 48 49 45
31 31 26 19 24 28 29 34 34 33 31 32 30 30 30 31 32 31 34 35 31 29 28 30 30 30 34 39 38 37 38 27 23 23 24 25 31 32 32 37 43 45 47 53 55 53 55 59 63
33 31 25 19 26 29 32 37 33 32 32 31 30 31 34 32 30 32 29 29 32 34 34 38 37 32 31 40 45 42 39 31 27 27 31 34 36 39 42 46 51 57 58 56 56 58 61 68 73
32 33 26 25 29 30 34 36 33 31 33 31 30 29 34 33 30 29 29 33 31 36 36 41 38 37 44 47 49 41 37 34 31 29 33 36 43 49 49 54 61 60 63 62 63 66 69 69 73
29 30 30 27 27 29 30 31 31 32 31 31 31 28 32 30 30 30 32 33 37 40 43 45 39 32 40 41 40 36 39 37 37 40 41 45 50 53 54 57 59 62 64 66 70 68 66 71 75
29 29 31 29 26 27 28 27 29 33 33 32 30 27 26 29 35 35 34 37 40 43 45 42 36 32 37 34 40 44 43 44 43 42 44 47 47 48 53 61 62 64 66 67 67 72 76 80 86
29 29 29 26 24 25 28 28 28 30 31 33 31 26 25 25 33 41 39 40 42 45 45 42 39 39 40 46 48 48 48 50 49 48 47 47 49 52 58 59 62 64 64 69 71 75 78 82 83
30 28 25 22 22 26 28 29 29 31 31 31 32 31 31 28 28 41 42 45 49 47 45 46 44 39 46 52 56 51 49 50 48 47 48 52 55 60 63 60 58 64 69 70 74 75 78 77 78
30 28 23 19 24 28 28 26 27 27 30 32 32 32 32 31 30 34 37 50 55 50 44 44 49 53 55 48 45 45 45 48 48 49 54 59 63 63 66 63 66 71 70 69 75 74 74 74 79
29 28 25 23 25 27 27 27 27 26 28 31 32 32 29 29 29 30 31 35 40 45 50 50 48 39 38 41 42 45 47 48 49 53 55 58 62 64 61 65 68 68 69 74 74 74 75 76 78
29 29 27 26 25 28 28 27 27 27 27 28 29 31 29 29 25 25 25 26 32 37 34 34 37 40 44 46 47 48 47 47 51 55 57 60 59 61 64 69 69 69 71 75 76 76 75 75 77
30 29 29 26 26 28 29 29 28 26 27 28 28 28 29 27 29 30 32 32 32 32 36 41 43 47 47 47 47 47 47 50 53 56 58 57 61 64 70 72 71 72 73 76 76 75 74 76 78
31 29 29 28 27 29 31 29 29 28 27 28 27 28 31 31 31 32 33 34 36 36 40 45 46 43 46 48 48 48 49 51 52 53 54 57 61 68 72 74 74 75 77 76 77 74 74 77 80
32 32 27 25 29 30 30 30 30 31 30 29 29 29 30 32 32 31 30 32 36 38 38 40 40 44 45 47 48 50 51 50 50 52 57 62 66 75 77 77 77 76 75 76 74 75 76 78 83
35 31 29 29 30 29 30 32 33 33 32 32 31 32 33 34 34 32 31 31 33 38 37 40 42 43 47 50 48 49 49 48 51 56 61 68 72 77 77 77 76 75 76 75 74 75 78 80 83
38 33 33 33 31 32 32 34 35 34 34 35 35 33 34 36 36 35 34 34 35 36 41 40 40 43 45 44 44 47 49 50 53 58 63 69 75 75 77 76 74 75 75 73 75 75 80 83 87
39 37 34 33 34 34 32 33 36 33 35 35 34 34 35 36 36 35 35 36 36 37 37 38 39 42 43 44 46 48 50 53 56 60 66 74 74 76 77 73 73 74 74 74 76 78 82 84 88
44 39 38 33 33 37 33 32 38 35 34 35 33 35 36 36 34 33 34 37 38 37 38 39 40 42 44 45 47 50 53 57 59 64 70 74 77 78 74 72 73 73 73 74 78 82 84 88 91
45 42 39 41 36 35 34 35 36 37 37 37 35 35 35 35 34 34 36 36 35 37 39 41 43 45 45 46 49 52 57 59 63 68 74 77 79 74 73 73 74 73 73 75 81 84 89 90 93
51 47 43 40 39 36 38 39 41 41 39 41 39 36 37 38 38 39 38 37 36 38 40 42 44 47 47 49 53 56 60 63 64 73 74 77 76 73 73 73 72 71 74 80 84 89 91 90 92
57 53 49 46 46 40 37 40 46 46 42 42 42 40 40 41 41 42 42 42 42 42 43 45 47 47 48 50 55 59 61 61 71 73 76 76 74 72 72 70 70 74 78 83 87 90 91 93 88
62 57 54 52 48 49 44 42 48 49 48 46 46 44 43 43 44 44 44 44 46 46 46 47 48 50 52 54 57 59 59 67 72 75 77 74 73 72 71 71 72 77 83 85 89 92 91 87 84
67 63 60 56 52 50 51 48 54 56 52 50 48 47 46 46 46 46 46 47 48 48 49 50 51 52 54 56 55 58 64 70 73 75 75 75 73 71 72 74 77 81 85 89 93 92 86 83 78